Simultaneous Nadir Overpasses (SNOs) Predictions

Prediction of SNOs between GOES-16 and METOP-C Satellite Orbit:

Table of predicted SNOs for the next 14.0 days since TLE Epoch: 11/27/2021
Index Date Time (GOES-16) GOES-16 Lat,Lon METOP-C Lat,Lon Distance(km) Time Diff (sec)
1 11/27/2021 14:28:14 -0.03, -75.21 -0.29, -73.97 140.94 80
2 11/29/2021 02:47:14 0.03, -75.18 -0.75, -78.56 385.12 80
3 11/30/2021 02:23:55 0.03, -75.18 0.40, -73.57 183.67 80
4 12/01/2021 14:42:48 -0.03, -75.20 0.61, -78.14 334.61 80
5 12/02/2021 14:24:49 -0.03, -75.19 -0.49, -73.14 234.36 80
6 12/04/2021 02:43:48 0.02, -75.17 -0.55, -77.72 291.20 80
7 12/05/2021 02:20:29 0.02, -75.17 0.54, -72.73 277.80 80
8 12/06/2021 14:39:22 -0.01, -75.18 0.46, -77.29 240.09 80
9 12/07/2021 14:21:23 -0.00, -75.19 -0.64, -72.29 329.31 80
10 12/09/2021 02:40:22 -0.00, -75.17 -0.40, -76.88 195.29 80
11 12/10/2021 02:17:03 -0.00, -75.18 0.75, -71.89 374.58 80
